AAL5214 KILM-KMCO

Flight info

Callsign AAL5214
Flight time N/A
Altitude 36000
Route ILM CAKET Q97 JEVED LPERD SNFLD3
Aircraft A319/M-SDE3FGHIRWY/LB1

Departure

Time 2026-05-05 02:28
Airport Wilmington International Airport (KILM)

Arrival

Time N/A
Airport Orlando International Airport (KMCO)
Time Latitude Longitude Altitude Speed Heading
2026-05-05 02:15 34.26632 -77.90852 39 ft 0 kts 315°
2026-05-05 02:21 34.26627 -77.90845 38 ft 2 kts 315°
2026-05-05 02:21 34.26615 -77.90831 40 ft 2 kts 315°
2026-05-05 02:21 34.26602 -77.90819 40 ft 2 kts
2026-05-05 02:21 34.26593 -77.90822 38 ft 0 kts 35°
2026-05-05 02:23 34.26613 -77.90782 40 ft 13 kts 59°
2026-05-05 02:23 34.26671 -77.90684 39 ft 15 kts 49°
2026-05-05 02:24 34.26745 -77.90584 39 ft 17 kts 47°
2026-05-05 02:24 34.26851 -77.90548 41 ft 17 kts 344°
2026-05-05 02:24 34.26970 -77.90601 41 ft 19 kts 338°
2026-05-05 02:24 34.27094 -77.90668 41 ft 20 kts 328°
2026-05-05 02:25 34.27219 -77.90759 41 ft 22 kts 332°
2026-05-05 02:25 34.27355 -77.90850 41 ft 23 kts 332°
2026-05-05 02:25 34.27503 -77.90923 41 ft 24 kts 349°
2026-05-05 02:25 34.27674 -77.90962 41 ft 25 kts 348°
2026-05-05 02:26 34.27847 -77.91007 41 ft 26 kts 349°
2026-05-05 02:26 34.28030 -77.91046 41 ft 22 kts 349°
2026-05-05 02:26 34.28140 -77.91073 41 ft 4 kts 346°
2026-05-05 02:26 34.28146 -77.91075 41 ft 0 kts 346°
2026-05-05 02:27 34.28177 -77.91085 41 ft 15 kts 343°
2026-05-05 02:27 34.28283 -77.91059 42 ft 17 kts 74°
2026-05-05 02:27 34.28238 -77.90965 42 ft 15 kts 159°
2026-05-05 02:27 34.28107 -77.90908 42 ft 40 kts 159°
2026-05-05 02:28 34.27500 -77.90631 41 ft 142 kts 159°
2026-05-05 02:28 34.26476 -77.90181 716 ft 160 kts 161°
2026-05-05 02:28 34.25410 -77.89732 1712 ft 163 kts 162°
2026-05-05 02:28 34.24280 -77.89277 2345 ft 182 kts 162°
2026-05-05 02:29 34.22984 -77.88762 2918 ft 208 kts 162°
2026-05-05 02:29 34.21528 -77.88186 3570 ft 233 kts 162°
2026-05-05 02:29 34.19887 -77.87633 4237 ft 257 kts 174°
2026-05-05 02:29 34.18092 -77.87943 5188 ft 268 kts 204°
2026-05-05 02:30 34.16618 -77.89316 6281 ft 272 kts 231°
2026-05-05 02:30 34.15434 -77.91120 7433 ft 275 kts 232°
2026-05-05 02:30 34.14226 -77.92940 8526 ft 279 kts 231°
2026-05-05 02:30 34.12993 -77.94782 9468 ft 286 kts 231°
2026-05-05 02:31 34.11739 -77.96645 10201 ft 289 kts 231°
2026-05-05 02:31 34.10411 -77.98613 10705 ft 315 kts 231°
2026-05-05 02:31 34.08973 -78.00744 11224 ft 335 kts 231°
2026-05-05 02:31 34.07478 -78.02962 12041 ft 344 kts 231°
2026-05-05 02:32 34.05961 -78.05214 12928 ft 349 kts 231°
2026-05-05 02:32 34.04418 -78.07505 13793 ft 353 kts 231°
2026-05-05 02:32 34.02860 -78.09818 14644 ft 358 kts 231°
2026-05-05 02:32 34.01297 -78.12135 15450 ft 362 kts 231°
2026-05-05 02:33 33.99692 -78.14504 16248 ft 366 kts 231°
2026-05-05 02:33 33.98088 -78.16872 17015 ft 371 kts 231°
2026-05-05 02:33 33.96447 -78.19296 17777 ft 375 kts 231°
2026-05-05 02:33 33.94785 -78.21749 18508 ft 379 kts 231°
2026-05-05 02:34 33.93103 -78.24232 19228 ft 384 kts 231°
2026-05-05 02:34 33.91409 -78.26730 19931 ft 388 kts 231°
2026-05-05 02:34 33.89688 -78.29267 20629 ft 392 kts 231°
2026-05-05 02:34 33.87955 -78.31821 21304 ft 396 kts 231°
2026-05-05 02:35 33.86203 -78.34403 21954 ft 400 kts 231°
2026-05-05 02:35 33.84437 -78.37007 22570 ft 403 kts 231°
2026-05-05 02:35 33.82655 -78.39634 23158 ft 407 kts 231°
2026-05-05 02:35 33.80856 -78.42286 23736 ft 411 kts 231°
2026-05-05 02:36 33.79038 -78.44957 24287 ft 414 kts 231°
2026-05-05 02:36 33.77201 -78.47646 24816 ft 418 kts 231°
2026-05-05 02:36 33.75347 -78.50357 25325 ft 421 kts 231°
2026-05-05 02:36 33.73472 -78.53097 25830 ft 424 kts 231°
2026-05-05 02:37 33.71594 -78.55847 26312 ft 427 kts 231°
2026-05-05 02:37 33.69726 -78.58581 26786 ft 431 kts 231°
2026-05-05 02:37 33.67817 -78.61372 27252 ft 434 kts 231°
2026-05-05 02:37 33.65895 -78.64185 27705 ft 437 kts 231°
2026-05-05 02:38 33.63960 -78.67018 28141 ft 440 kts 231°
2026-05-05 02:38 33.62010 -78.69863 28574 ft 443 kts 231°
2026-05-05 02:38 33.60046 -78.72720 28993 ft 445 kts 231°
2026-05-05 02:38 33.58065 -78.75598 29377 ft 448 kts 231°
2026-05-05 02:39 33.56077 -78.78487 29762 ft 451 kts 231°
2026-05-05 02:39 33.54075 -78.81397 30132 ft 454 kts 231°
2026-05-05 02:39 33.52062 -78.84325 30492 ft 456 kts 231°
2026-05-05 02:39 33.50038 -78.87268 30843 ft 459 kts 231°
2026-05-05 02:40 33.47996 -78.90228 31182 ft 461 kts 230°
2026-05-05 02:40 33.45950 -78.93186 31591 ft 461 kts 230°
2026-05-05 02:40 33.43908 -78.96136 32069 ft 460 kts 230°
2026-05-05 02:40 33.41869 -78.99085 32537 ft 459 kts 230°
2026-05-05 02:41 33.39836 -79.02024 32997 ft 458 kts 230°
2026-05-05 02:41 33.37805 -79.04960 33446 ft 457 kts 230°
2026-05-05 02:41 33.35779 -79.07886 33897 ft 456 kts 230°
2026-05-05 02:41 33.33754 -79.10806 34343 ft 455 kts 230°
2026-05-05 02:42 33.32411 -79.12743 34643 ft 454 kts 230°
2026-05-05 02:42 33.30394 -79.15653 35080 ft 453 kts 230°
2026-05-05 02:42 33.28385 -79.18547 35506 ft 453 kts 230°
2026-05-05 02:42 33.26371 -79.21438 35883 ft 453 kts 230°
2026-05-05 02:43 33.24353 -79.24329 35995 ft 452 kts 230°
2026-05-05 02:43 33.20335 -79.30080 36009 ft 450 kts 230°
2026-05-05 02:44 33.16328 -79.35832 36008 ft 450 kts 230°
2026-05-05 02:44 33.12319 -79.41573 36008 ft 450 kts 230°
2026-05-05 02:45 33.08307 -79.47304 36008 ft 450 kts 230°
2026-05-05 02:45 33.04290 -79.53027 36010 ft 450 kts 230°
2026-05-05 02:46 33.00273 -79.58753 36014 ft 450 kts 230°
2026-05-05 02:46 32.96251 -79.64467 36017 ft 450 kts 230°
2026-05-05 02:47 32.92217 -79.70194 36018 ft 450 kts 230°
2026-05-05 02:47 32.88193 -79.75900 36018 ft 450 kts 230°
2026-05-05 02:48 32.84164 -79.81603 36019 ft 450 kts 230°
2026-05-05 02:48 32.80130 -79.87287 36018 ft 450 kts 230°
2026-05-05 02:49 32.76107 -79.92960 36017 ft 450 kts 230°
2026-05-05 02:49 32.72065 -79.98663 36017 ft 450 kts 230°
2026-05-05 02:50 32.68024 -80.04346 36016 ft 450 kts 230°
2026-05-05 02:50 32.63979 -80.10021 36015 ft 450 kts 230°
2026-05-05 02:51 32.59935 -80.15683 36014 ft 449 kts 230°
2026-05-05 02:51 32.55893 -80.21349 36013 ft 449 kts 230°
2026-05-05 02:52 32.51581 -80.26691 36012 ft 449 kts 218°
2026-05-05 02:52 32.46236 -80.30504 36012 ft 449 kts 208°
2026-05-05 02:53 32.40721 -80.33990 36003 ft 449 kts 208°
2026-05-05 02:53 32.35214 -80.37490 36000 ft 449 kts 208°
2026-05-05 02:54 32.29699 -80.40977 35999 ft 448 kts 208°
2026-05-05 02:54 32.27023 -80.42637 36009 ft 423 kts 208°
2026-05-05 02:54 32.24464 -80.44225 36007 ft 406 kts 208°
2026-05-05 02:54 32.22019 -80.45760 36008 ft 391 kts 208°
2026-05-05 02:55 32.19658 -80.47253 35977 ft 378 kts 208°
2026-05-05 02:55 32.17393 -80.48685 35849 ft 368 kts 208°
2026-05-05 02:55 32.15162 -80.50096 35649 ft 360 kts 208°
2026-05-05 02:55 32.12963 -80.51482 35343 ft 356 kts 208°
2026-05-05 02:56 32.10786 -80.52851 35013 ft 353 kts 208°
2026-05-05 02:56 32.08605 -80.54223 34137 ft 361 kts 208°
2026-05-05 02:56 32.06476 -80.55814 33366 ft 363 kts 222°
2026-05-05 02:56 32.04859 -80.58061 32784 ft 358 kts 240°
2026-05-05 02:57 32.03953 -80.60769 32233 ft 353 kts 259°
2026-05-05 02:57 32.03844 -80.63630 31692 ft 349 kts 278°
2026-05-05 02:57 32.04269 -80.66424 31145 ft 345 kts 281°
2026-05-05 02:57 32.04716 -80.69188 30635 ft 341 kts 281°
2026-05-05 02:58 32.05152 -80.71920 30139 ft 337 kts 281°
2026-05-05 02:58 32.05581 -80.74619 29649 ft 333 kts 281°
2026-05-05 02:58 32.06005 -80.77289 29159 ft 328 kts 281°
2026-05-05 02:58 32.06421 -80.79919 28667 ft 324 kts 281°
2026-05-05 02:59 32.06833 -80.82515 28181 ft 320 kts 281°
2026-05-05 02:59 32.07238 -80.85070 27463 ft 314 kts 281°
2026-05-05 02:59 32.07636 -80.87576 26735 ft 309 kts 281°
2026-05-05 02:59 32.08028 -80.90053 26013 ft 303 kts 281°
2026-05-05 03:00 32.08412 -80.92480 25308 ft 298 kts 281°
2026-05-05 03:00 32.08790 -80.94866 24609 ft 293 kts 281°
2026-05-05 03:00 32.09161 -80.97215 23919 ft 289 kts 280°
2026-05-05 03:00 32.09524 -80.99524 23235 ft 284 kts 280°
2026-05-05 03:01 32.09881 -81.01802 22564 ft 280 kts 280°
2026-05-05 03:01 32.10234 -81.04046 21903 ft 276 kts 281°
2026-05-05 03:01 32.10787 -81.06186 21236 ft 271 kts 292°
2026-05-05 03:01 32.11531 -81.08191 20587 ft 268 kts 294°
2026-05-05 03:02 32.12278 -81.10194 19788 ft 269 kts 293°
2026-05-05 03:02 32.13046 -81.12274 18603 ft 284 kts 293°
2026-05-05 03:02 32.13854 -81.14462 17341 ft 299 kts 293°
2026-05-05 03:02 32.14690 -81.16763 16630 ft 309 kts 293°
2026-05-05 03:03 32.15525 -81.19098 16373 ft 307 kts 293°
2026-05-05 03:03 32.16357 -81.21412 15799 ft 305 kts 293°
2026-05-05 03:03 32.17196 -81.23695 14838 ft 302 kts 293°
2026-05-05 03:03 32.18032 -81.25954 13889 ft 299 kts 293°
2026-05-05 03:04 32.18861 -81.28189 12953 ft 294 kts 293°
2026-05-05 03:04 32.19676 -81.30385 12012 ft 290 kts 293°
2026-05-05 03:04 32.20483 -81.32553 11080 ft 286 kts 294°
2026-05-05 03:04 32.21280 -81.34694 10134 ft 282 kts 294°
2026-05-05 03:05 32.22065 -81.36799 9198 ft 278 kts 294°
2026-05-05 03:05 32.22840 -81.38877 8258 ft 274 kts 294°
2026-05-05 03:05 32.23606 -81.40925 7314 ft 270 kts 294°
2026-05-05 03:05 32.24361 -81.42946 6386 ft 267 kts 294°
2026-05-05 03:06 32.25105 -81.44933 5453 ft 263 kts 294°
2026-05-05 03:06 32.25841 -81.46899 4550 ft 260 kts 294°
2026-05-05 03:06 32.26567 -81.48835 3633 ft 256 kts 294°
2026-05-05 03:06 32.27287 -81.50752 2761 ft 253 kts 294°
2026-05-05 03:07 32.27988 -81.52640 2213 ft 250 kts 293°
2026-05-05 03:07 32.28610 -81.54575 2061 ft 253 kts 282°
2026-05-05 03:07 32.28489 -81.56612 2017 ft 251 kts 249°
2026-05-05 03:07 32.27629 -81.58405 2025 ft 252 kts 237°
2026-05-05 03:08 32.26580 -81.59998 2021 ft 241 kts 219°
2026-05-05 03:08 32.25156 -81.60731 2016 ft 218 kts 185°
2026-05-05 03:08 32.23657 -81.60582 2021 ft 216 kts 167°
2026-05-05 03:08 32.22272 -81.59909 2021 ft 215 kts 153°
2026-05-05 03:09 32.20947 -81.59082 2024 ft 215 kts 152°
2026-05-05 03:09 32.19632 -81.58249 2032 ft 215 kts 153°
2026-05-05 03:09 32.18306 -81.57424 2023 ft 215 kts 153°
2026-05-05 03:09 32.16978 -81.56612 2021 ft 215 kts 153°